Voltar ao catálogo

IRIDIUM 33 DEB

AtivoPO
NORAD 36011·DEBRIS·🇺🇸 United States

Lançado Sep 14, 1997 de Baikonur Cosmodrome

Loading…

Próximas Passagens (próximas 24 horas)

TLE

EnvelhecendoSource: Space-Track

Época: Sep 6, 2026, 08:17 UTC

1 36011U 97051US  26249.34559235  .00000627  00000-0  18447-3 0  9994
2 36011  86.3360 280.4244 0020482  63.1249 357.1923 14.42064579683968

Acompanhe IRIDIUM 33 DEB em tempo real com AllMySat

Download on the App Store